Air Sicilia Virtual Airways - Route

Air Sicilia Virtual Airways - SIC066A

( IT ) LICJ - 00:00
Falcone–Borsellino Airport
PALERMO ( PMO )
plane_to ( IT ) LICB - 00:00
Comiso Airport
COMISO ( CIY )

AIRPORT NEAR NAVIGATION AIDS

Type Name Frequency
VOR-DME Palermo 112300 KHZ
NDB Palermo 356 KHZ
VOR-DME Raisi 113000 KHZ
NDB Raisi 329 KHZ

METAR / TAF
LICJ 191320Z 02008KT 9999 FEW030TCU 27/22 Q1014
LICJ 191100Z 1912/2012 02012KT 9999 SCT030 TEMPO 1912/1916 TSRA BECMG 1918/1920 VRB05KT TEMPO 1920/2006 TSRA BECMG 2007/2009 04013KT

RUNWAY INFORMATION

Runway Runway length Runway width Runway elevation Runway displaced threshold Runway heading
02 6804 148 42 10 24
20 6804 148 22 10 204
07 10912 197 33 404 66.9
25 10912 197 50 679 246.9

AIRPORT FREQUENCIES

Type Name Frequency
APP APP 120.2 MHZ
GND RAISI GND 121.625 MHZ
TWR RAISI TWR 119.05 MHZ

AIRPORT NEAR NAVIGATION AIDS

Type Name Frequency

METAR / TAF
LICB 191250Z 26010KT 220V290 9999 FEW040 30/15 Q1015

RUNWAY INFORMATION

Runway Runway length Runway width Runway elevation Runway displaced threshold Runway heading
05 8070 148 0 0 0
23 8070 148 0 0 0

AIRPORT FREQUENCIES

Type Name Frequency

Flightplan

VFR

Air Sicilia Virtual Airways Fleets

AVAILABLE AIRCRAFTS for route at this time in Falcone–Borsellino Airport
C172 - Cessna 172 Skyhawk
( US ) CESSNA

Aircraft in fleet: 1

PC12 - Pilatus PC12 Eagle
( CH ) Pilatus

Aircraft in fleet: 1

101.28 NM

Distance in nautical miles.

€ 242,00

Ticket price for this flight.

0 h.

Estimated flight time.



07-08-2018
Aerosoft Professional Flight Planner PFPX

PFPX - Professional Flight Planner X - è un nuovo ed innovativo strumento di pianificazione del volo sviluppato da piloti e dispatcher del mondo reale. È un'aggiunta preziosa e realistica alla tua esperienza di simulaz ....


19-07-2018
Aerosoft Oslo X

L'Aeroporto di Oslo-Gardermoen (IATA: OSL, ICAO: ENGM) è il principale aeroporto norvegese e il 19° in Europa, è situato vicino alla cittadina di Ullensaker nella contea di Akershus e serve la capitale Oslo. Ha sostit ....


21-06-2018
Aerosoft Malpensa Professional P3Dv4

L'Aeroporto di Milano-Malpensa (IATA: MXP, ICAO: LIMC) è un aeroporto italiano situato nella provincia di Varese in Lombardia, ma considerato come il principale aeroporto di Milano.

È il secondo aeroporto ital ....


06-06-2018
1° Raduno Air Sicilia Virtual - parla il C.E.O.

Grande successo per il 1° Raduno di Compagnia dell'Air Sicilia Virtual, che ha visto i membri della Crew presenti il 4 giugno 2018 a Thiene ( VI ) , cimentarsi dal vivo con le reali ....


24-05-2018
Aerosoft Airport Rome XP

Tra le nostre recensioni non poteva mancare certo la nuova uscita Aerosoft per X-Plane, stiamo parlando di Airport Rome XP, finalmente un Add-on pay completo dell'Aeroporto di Roma Fiumicino per gli utilizzatori del simu ....